Location: Bandy
(45.8833°N, 2.0667°E)
Time: 11:38:01
(UTC+00:00)

Daily predictions for brighter satellites

Satellite Brightness Start Highest point End
(mag) Time Altitude Azimuth Time Altitude Azimuth Time Altitude Azimuth
Okean 3 Rocket 4.2 16:34:04 10° NNW 16:38:32 62° W 16:42:55 10° S
Cosmos 1842 Rocket 3.6 16:34:09 10° S 16:38:33 64° E 16:43:01 10° NNE
Cosmos 2221 2.5 16:34:24 10° S 16:38:39 74° E 16:42:57 10° NNE
SL-08 R/B 3.4 16:41:16 10° NNE 16:46:01 87° WNW 16:50:39 10° SSW
Cosmos 2084 3.5 16:46:23 10° NW 16:50:40 64° NE 16:55:05 10° SE
Cosmos 1656 3.7 16:45:52 10° NNW 16:51:25 88° WSW 16:57:02 10° SSE
AQUARIUS 4.5 16:48:10 10° SE 16:52:26 44° ENE 16:56:43 10° N
FengYun 1-2 T 4.2 16:48:17 10° SSE 16:53:50 71° ENE 16:59:22 10° N
H-2A R/B 2.7 16:50:23 10° SE 16:54:54 32° ENE 16:59:21 10° N
Cosmos 2034 Rocket 4.0 16:49:14 10° S 16:55:20 74° E 17:01:30 10° NNE
ERBS 4.0 16:54:18 10° WNW 16:56:52 21° NNW 16:59:26 10° NNE
Cosmos 2322 Rocket 4.1 16:57:01 10° NNE 16:58:23 11° NNE 16:59:46 10° NE
Cosmos 1666 4.3 16:56:38 10° NE 16:58:35 14° ENE 17:00:31 10° E
USA 306 4.2 16:56:37 10° WNW 17:00:20 28° N 17:03:44 12° NE
Cosmos 1697 Rocket 2.7 16:57:11 10° NNW 17:02:46 60° ENE 17:08:18 10° SE
USA 267 3.4 16:58:28 10° NE 17:05:02 79° NW 17:11:34 10° WSW
Cosmos 2369 4.0 17:00:33 10° NNW 17:06:03 44° NE 17:11:30 10° SE
Cosmos 1980 Rocket 2.7 17:01:14 10° NNW 17:06:29 36° NE 17:11:39 10° ESE
Cosmos 1763 Rocket 3.4 17:02:03 10° SSW 17:07:06 75° ESE 17:12:13 10° NNE
COSMO-SKYMED 1 3.8 17:05:08 10° NE 17:08:24 21° E 17:11:43 10° SE
Cosmos 1939 Rocket 2.9 17:04:23 10° SSE 17:08:30 83° ENE 17:12:37 10° N
SL-24 R/B - RUBIN 2 4.2 17:06:58 10° NNW 17:11:13 35° NE 17:15:13 10° ESE
Meteor 1-25 Rocket 4.1 17:06:17 10° N 17:11:51 72° ENE 17:17:27 10° SSE
Cosmos 841 Rocket 4.0 17:07:56 10° S 17:12:40 37° ESE 17:17:15 11° NE
Cosmos 1812 3.9 17:11:43 10° SE 17:14:43 22° E 17:16:31 16° NE
Cosmos 1937 Rocket 3.5 17:10:35 10° NNW 17:15:52 60° ENE 17:21:07 10° SE
SL-16 R/B 3.7 17:12:29 10° N 17:15:59 16° NE 17:17:26 15° ENE
Cosmos 1634 Rocket 4.2 17:10:58 10° SSE 17:17:03 52° E 17:23:11 10° NNE
USA 307 4.2 17:15:01 10° WNW 17:18:44 28° N 17:21:20 16° NE
Cosmos 1633 Rocket 4.1 17:15:23 10° NNE 17:18:58 24° ENE 17:22:32 10° SE
Cosmos 2082 Rocket 2.8 17:14:57 10° S 17:20:08 38° ESE 17:24:27 14° NE
USA 229 DEB 4.0 17:13:05 10° NW 17:20:28 89° SW 17:28:18 10° SE
USA 229 4.0 17:13:10 10° NW 17:20:33 90° SW 17:28:23 10° SE
NOAA 6 4.1 17:16:40 10° SSE 17:21:49 84° WSW 17:26:59 10° NNW
Cosmos 990 Rocket 4.5 17:19:16 10° NNW 17:24:25 64° WSW 17:29:30 10° S
Cosmos 2026 Rocket 3.9 17:18:31 10° N 17:24:40 67° E 17:30:41 10° SSE
CZ-4B DEB 4.2 17:20:53 10° SSE 17:26:24 83° ENE 17:31:56 10° NNW
CORIOLIS 4.2 17:21:07 10° SSE 17:26:31 86° WSW 17:31:59 10° NNW
Cosmos 2195 Rocket 4.4 17:21:44 10° N 17:27:55 82° E 17:34:07 10° S
ATLAS 2AS CENTAUR R/B 4.5 17:22:35 10° WNW 17:28:10 21° NNW 17:33:28 10° NE
USA 276 3.5 17:26:17 10° WNW 17:29:14 38° SSW 17:32:09 10° SE
Okean O Rocket 2.2 17:25:42 10° SE 17:29:43 35° ENE 17:33:46 10° N
Cosmos 372 Rocket 4.1 17:25:03 10° NNW 17:30:10 52° ENE 17:35:17 10° SE
Cosmos 1602 3.6 17:26:34 10° N 17:30:26 86° E 17:34:18 10° S
Cosmos 2278 4.1 17:25:07 10° NNW 17:30:29 40° NE 17:35:49 10° SE
Cosmos 1743 Rocket 4.2 17:28:18 10° NNW 17:32:33 58° W 17:36:47 10° S
ATLAS CENTAUR R/B 4.0 17:31:05 10° NW 17:32:49 12° NNW 17:34:37 10° N
Cosmos 1782 2.7 17:31:34 10° S 17:35:31 68° E 17:39:29 10° NNE
Cosmos 1151 Rocket 3.5 17:31:35 10° SSE 17:35:32 36° E 17:38:08 19° NE
Meteor 2-14 Rocket 4.3 17:30:45 10° N 17:36:53 76° E 17:42:57 10° SSE
COSMOS 2406 3.2 17:31:56 10° SSW 17:37:42 84° ESE 17:43:05 12° NNE
USA 234 3.5 17:32:05 10° SE 17:38:37 72° SW 17:45:10 10° NW
COSMOS 2455 2.9 17:33:34 10° SSW 17:39:28 62° ESE 17:43:55 18° NE
USA 308 4.2 17:37:41 10° WNW 17:41:20 27° N 17:42:51 22° NNE
ARGOS 3.3 17:38:10 10° SE 17:43:23 51° ENE 17:48:37 10° N
Cosmos 1666 Rocket 3.7 17:39:40 10° N 17:44:02 51° ENE 17:48:19 10° SSE
Cosmos 1833 Rocket 2.9 17:38:41 10° SW 17:44:16 70° WNW 17:49:48 11° NNE
ISS -3.6 17:46:14 10° WNW 17:49:36 58° NNE 17:50:10 49° ENE
Cosmos 1328 Rocket 4.0 17:45:47 10° SSE 17:49:52 37° E 17:50:52 33° ENE
NOSS 2-2 (D) 4.3 17:45:15 10° NW 17:50:27 78° NE 17:57:48 10° SE
CZ-2D R/B 3.5 17:47:13 10° S 17:51:02 69° WSW 17:54:52 10° NNW
NOSS 2-2 (E) 4.5 17:45:39 10° NW 17:51:02 89° SW 17:58:40 10° SE
PAYLOAD B 4.4 17:47:49 10° S 17:53:26 77° WSW 17:59:04 10° NNW
CZ-4 R/B 4.4 17:50:07 10° SSE 17:54:09 55° ENE 17:58:12 10° N
Lacrosse 5 rocket 2.3 17:53:10 10° NW 17:56:30 28° NNE 17:56:30 28° NNE
SKYMED 2 3.5 17:53:45 20° NNE 17:56:44 65° ESE 18:01:02 10° S
Meteor 2-21 Rocket 4.3 17:52:30 10° N 17:58:39 83° E 18:04:43 10° S
Cosmos 1570 Rocket 4.1 17:54:57 10° S 18:00:01 52° ESE 18:02:05 33° NE
CZ-4B R/B 3.1 17:54:53 10° SSE 18:00:20 87° ENE 18:05:43 10° NNW
Landsat 5 3.5 18:00:27 45° ENE 18:01:04 50° E 18:04:56 10° S
ATLAS CENTAUR R/B 3.0 17:52:02 10° WSW 18:01:18 63° NW 18:03:24 31° NNE
SL-08 RB Rocket 3.8 17:58:41 10° SSE 18:03:11 52° ENE 18:07:40 10° N
GEOS 3 Rocket 3.8 18:02:08 35° E 18:03:54 48° NE 18:08:53 10° NNW
Cosmos 540 Rocket 3.9 17:58:57 10° SSW 18:03:59 62° WNW 18:08:24 14° NNE
Cosmos 1500 3.8 18:01:04 10° NNW 18:04:44 56° W 18:08:23 10° S
CZ-2C R/B 2.4 17:59:30 10° NNE 18:04:44 77° ESE 18:09:54 10° S
Cosmos 1814 Rocket 3.9 18:02:32 10° S 18:07:43 70° ESE 18:10:08 32° NNE
Cosmos 1818 3.9 18:02:51 10° NNW 18:08:08 45° NE 18:09:03 41° ENE
Meteor 1-11 Rocket 4.2 18:03:12 10° N 18:07:51 36° ENE 18:07:51 36° ENE
USA 305 4.1 18:05:05 10° NW 18:08:47 28° N 18:08:56 28° N
Cosmos 44 Rocket 3.7 18:07:12 10° NNW 18:11:46 42° NE 18:11:46 42° NE
CZ-4C R/B 2.9 18:05:08 10° NW 18:12:21 75° NE 18:20:10 12° SE
Sich 1 4.2 18:09:25 10° NNW 18:13:28 42° W 18:17:31 10° SSW
Cosmos 1900 4.5 18:13:45 10° SSW 18:18:19 49° ESE 18:18:19 49° ESE
Feng Yun 1-1 Rocket 4.3 18:13:17 10° SSE 18:19:10 69° ENE 18:25:01 10° N
Cosmos 2360 Rocket 3.9 18:20:04 10° N 18:22:13 18° NNE 18:22:13 18° NNE
deb Chang Zheng 4 4.3 18:23:20 10° S 18:27:31 51° W 18:31:45 10° NNW
Cosmos 2208 Rocket 3.9 18:27:20 10° SSW 18:32:43 80° ESE 18:33:46 59° NE
H-2A R/B 3.5 18:29:30 10° SSW 18:34:16 36° W 18:38:56 10° NNW
Cosmos 1666 3.6 18:30:48 10° NNW 18:34:23 45° W 18:37:55 10° SSW
USA 306 4.5 18:37:14 10° NW 18:39:44 26° NNW 18:39:44 26° NNW
Cosmos 2322 Rocket 3.2 18:38:35 10° NNW 18:41:55 31° N 18:41:55 31° N
COSMO-SKYMED 1 3.8 18:42:21 22° NNW 18:44:43 40° WNW 18:48:46 10° SW
USA 267 4.1 18:45:34 32° NNE 18:47:34 39° NNW 18:53:32 10° W
Cosmos 1980 Rocket 3.5 18:45:17 10° NW 18:50:31 39° WSW 18:55:41 10° S
Cosmos 2266 Rocket 4.0 18:45:04 10° N 18:51:29 87° W 18:57:54 10° S
Cosmos 1125 Rocket 4.4 18:54:15 10° NNW 18:57:27 38° NNW 18:57:27 38° NNW
SL-16 R/B 2.8 18:55:25 10° NNW 18:59:21 45° N 18:59:21 45° N
Meteor 2-15 Rocket 4.4 18:56:12 10° S 19:02:21 83° W 19:03:21 64° N
Cosmos 2082 Rocket 3.4 18:58:56 10° WSW 19:04:12 38° NW 19:06:20 28° N
Okean O Rocket 3.7 19:02:23 10° SSW 19:06:06 26° W 19:09:52 10° NW
Cosmos 2333 Rocket 4.4 19:05:23 10° N 19:06:11 13° N 19:06:11 13° N
ATLAS 2AS CENTAUR R/B 4.4 19:16:18 10° NNW 19:20:53 22° N 19:20:53 22° N
COSMOS 2455 4.3 19:20:34 10° WSW 19:25:50 30° NW 19:27:05 28° NNW
Lacrosse 5 rocket 4.4 19:31:59 10° NW 19:32:07 11° NW 19:32:07 11° NW
CZ-4C R/B 4.5 19:54:12 10° NW 20:00:43 32° WSW 20:05:34 18° SSW
